Flag for Portugal Weather past 2 weeks in Braga, Portugal

Now
56 °F

Cool.


Feels Like: 56 °F
Forecast: 45 / 62 °F
Wind: 2 mph from West

Location: Porto / Pedras Rubras

Current Time: Apr 26, 2015 at 8:03:47 AM

Latest Report: Apr 26, 2015 at 7:00 AM


Visibility: N/A

Pressure: 29.76 "Hg

Humidity: 81%

Dew point: 50 °F

Location of BragaLocation

Historic Weather in Braga — Graph

°F

Braga temperature yesterday

Maximum temperature yesterday: 64 °F (at 12:00 PM)
Minimum temperature yesterday: 58 °F (at 11:00 PM)
Average temperature yesterday: 60 °F

Past Weeks' High & Low Weather Summary

 TemperatureHumidityPressure
High80 °F (Apr 13, 3:00 PM)92% (Apr 16, 1:00 AM)30.32 "Hg (Apr 16, 1:00 AM)
Low47 °F (Apr 19, 7:00 AM)23% (Apr 13, 3:00 PM)29.75 "Hg (Apr 26, 12:00 AM)
Average59 °F71%30.07 "Hg
* Reported Apr 11 6:00 AM — Apr 26 6:00 AM, Braga, Weather by CustomWeather, © 2015

Note: Actual official high and low records may vary slightly from our data, if they occured in-between our weather recording intervals... More about our weather records

Advertising

Braga weather history for previous 24 hours

 ConditionsComfort  
Time TempWeatherWind HumidityBarometerVisibility
6:00 AM
Sun, Apr 26
56 °FCool.3 mph82%29.75 "HgN/A
5:00 AM57 °FCool.2 mph84%29.76 "HgN/A
4:00 AM56 °FCool.3 mph86%29.77 "HgN/A
3:00 AM56 °FCool.5 mph87%29.76 "HgN/A
2:00 AM58 °FCool.7 mph89%29.76 "HgN/A
1:00 AM59 °FCool.6 mph92%29.76 "HgN/A
12:00 AM59 °FCool.8 mph91%29.75 "HgN/A
11:00 PM
Sat, Apr 25
58 °FCool.7 mph91%29.76 "HgN/A
9:00 PM59 °FCool.6 mph89%29.82 "HgN/A
8:00 PM59 °FCool.8 mph90%29.82 "HgN/A
7:00 PM59 °FCool.8 mph90%29.83 "HgN/A
6:00 PM60 °FCool.8 mph90%29.83 "HgN/A
5:00 PM60 °FCool.7 mph88%29.85 "HgN/A
4:00 PM60 °FCool.9 mph88%29.85 "HgN/A
3:00 PM62 °FCool.6 mph86%29.88 "HgN/A
2:00 PM62 °FMild.8 mph79%29.89 "HgN/A
1:00 PM63 °FMild.9 mph78%29.90 "HgN/A
12:00 PM64 °FMild.8 mph79%29.92 "HgN/A
11:00 AM63 °FMild.8 mph80%29.93 "HgN/A
10:00 AM61 °FCool.7 mph83%29.93 "HgN/A
9:00 AM60 °FCool.7 mph83%29.93 "HgN/A
8:00 AM60 °FCool.6 mph85%29.93 "HgN/A
Weather by CustomWeather, © 2015

See weather overviewHow to use our weather pages